Time,TemperatureF,DewpointF,PressureIn,WindDirection,WindDirectionDegrees,WindSpeedMPH,WindSpeedGustMPH,Humidity,HourlyPrecipIn,Conditions,Clouds,dailyrainin,SoftwareType,DateUTC
2013-02-10 00:03:00,65.4,64.0,29.76,SW,222,4.0,11.0,96,0.00,,,0.00,weatherlink.com 1.10,2013-02-10 06:03:00,
2013-02-10 00:18:00,65.3,64.0,29.76,SW,227,4.0,15.0,96,0.00,,,0.00,weatherlink.com 1.10,2013-02-10 06:18:00,
2013-02-10 00:33:00,65.2,64.0,29.74,SSW,195,6.0,12.0,96,0.00,,,0.00,weatherlink.com 1.10,2013-02-10 06:33:00,
2013-02-10 00:48:00,65.2,64.0,29.73,SW,221,4.0,13.0,96,0.00,,,0.00,weatherlink.com 1.10,2013-02-10 06:48:00,
2013-02-10 01:03:00,65.2,64.0,29.74,SSW,198,6.0,10.0,96,0.00,,,0.00,weatherlink.com 1.10,2013-02-10 07:03:00,
2013-02-10 01:19:00,65.3,64.0,29.74,SE,143,5.0,10.0,96,0.00,,,0.00,weatherlink.com 1.10,2013-02-10 07:19:00,
2013-02-10 01:34:00,65.3,64.0,29.74,SSE,158,4.0,9.0,96,0.01,,,0.01,weatherlink.com 1.10,2013-02-10 07:34:00,
2013-02-10 01:49:00,65.3,65.0,29.74,South,190,5.0,10.0,97,0.02,,,0.02,weatherlink.com 1.10,2013-02-10 07:49:00,
2013-02-10 02:04:00,65.3,65.0,29.74,SSW,197,2.0,9.0,97,0.03,,,0.03,weatherlink.com 1.10,2013-02-10 08:04:00,
2013-02-10 02:19:00,65.4,65.0,29.74,WSW,238,4.0,11.0,97,0.03,,,0.03,weatherlink.com 1.10,2013-02-10 08:19:00,
2013-02-10 02:34:00,65.5,65.0,29.74,WSW,240,4.0,9.0,97,0.03,,,0.04,weatherlink.com 1.10,2013-02-10 08:34:00,
2013-02-10 02:49:00,65.6,65.0,29.73,WSW,252,4.0,8.0,97,0.02,,,0.04,weatherlink.com 1.10,2013-02-10 08:49:00,
2013-02-10 03:04:00,65.6,65.0,29.74,South,188,3.0,8.0,97,0.01,,,0.04,weatherlink.com 1.10,2013-02-10 09:04:00,
2013-02-10 03:19:00,65.8,65.0,29.73,SSW,208,3.0,12.0,96,0.01,,,0.04,weatherlink.com 1.10,2013-02-10 09:19:00,
2013-02-10 03:34:00,65.8,65.0,29.74,SW,230,3.0,10.0,96,0.00,,,0.04,weatherlink.com 1.10,2013-02-10 09:34:00,
2013-02-10 03:49:00,65.8,65.0,29.73,SSE,162,1.0,10.0,96,0.00,,,0.04,weatherlink.com 1.10,2013-02-10 09:49:00,
2013-02-10 04:04:00,66.0,65.0,29.74,South,169,3.0,15.0,96,0.01,,,0.05,weatherlink.com 1.10,2013-02-10 10:04:00,
2013-02-10 04:19:00,66.0,65.0,29.75,WSW,249,5.0,11.0,96,0.01,,,0.05,weatherlink.com 1.10,2013-02-10 10:19:00,
2013-02-10 04:34:00,66.1,65.0,29.75,SW,219,3.0,10.0,96,0.01,,,0.05,weatherlink.com 1.10,2013-02-10 10:34:00,
2013-02-10 04:49:00,66.1,65.0,29.76,SW,217,1.0,6.0,96,0.01,,,0.05,weatherlink.com 1.10,2013-02-10 10:49:00,
2013-02-10 05:04:00,60.5,54.0,29.78,NW,312,5.0,17.0,78,0.00,,,0.05,weatherlink.com 1.10,2013-02-10 11:04:00,
2013-02-10 05:19:00,57.5,52.0,29.79,NW,309,5.0,13.0,81,0.00,,,0.05,weatherlink.com 1.10,2013-02-10 11:19:00,
2013-02-10 05:34:00,55.9,48.0,29.80,WNW,301,3.0,13.0,76,0.00,,,0.05,weatherlink.com 1.10,2013-02-10 11:34:00,
2013-02-10 05:49:00,52.8,47.0,29.81,West,280,1.0,3.0,82,0.02,,,0.07,weatherlink.com 1.10,2013-02-10 11:49:00,
2013-02-10 06:04:00,51.3,47.0,29.81,NNW,346,3.0,4.0,84,0.02,,,0.07,weatherlink.com 1.10,2013-02-10 12:04:00,
2013-02-10 06:19:00,52.1,42.0,29.82,NW,319,3.0,6.0,69,0.02,,,0.07,weatherlink.com 1.10,2013-02-10 12:19:00,
2013-02-10 06:34:00,52.4,40.0,29.82,NW,312,0.0,6.0,64,0.01,,,0.07,weatherlink.com 1.10,2013-02-10 12:34:00,
2013-02-10 06:49:00,51.6,40.0,29.82,West,281,3.0,8.0,66,0.00,,,0.07,weatherlink.com 1.10,2013-02-10 12:49:00,
2013-02-10 07:04:00,52.3,38.0,29.83,WNW,293,1.0,7.0,59,0.00,,,0.07,weatherlink.com 1.10,2013-02-10 13:04:00,
2013-02-10 07:19:00,52.2,38.0,29.84,NW,306,0.0,8.0,58,0.00,,,0.07,weatherlink.com 1.10,2013-02-10 13:19:00,
2013-02-10 07:34:00,52.4,36.0,29.84,WNW,295,1.0,7.0,54,0.00,,,0.07,weatherlink.com 1.10,2013-02-10 13:34:00,
2013-02-10 07:49:00,52.8,33.0,29.85,NW,312,0.0,5.0,48,0.00,,,0.07,weatherlink.com 1.10,2013-02-10 13:49:00,
2013-02-10 08:05:00,53.2,32.0,29.86,NW,308,2.0,5.0,45,0.00,,,0.07,weatherlink.com 1.10,2013-02-10 14:05:00,
2013-02-10 08:20:00,53.7,32.0,29.85,NW,304,1.0,10.0,44,0.00,,,0.07,weatherlink.com 1.10,2013-02-10 14:20:00,
2013-02-10 08:35:00,54.2,30.0,29.87,NNW,335,2.0,9.0,39,0.00,,,0.07,weatherlink.com 1.10,2013-02-10 14:35:00,
2013-02-10 08:50:00,54.7,28.0,29.86,NW,304,3.0,14.0,36,0.00,,,0.07,weatherlink.com 1.10,2013-02-10 14:50:00,
2013-02-10 09:05:00,55.3,29.0,29.88,NNW,330,7.0,9.0,37,0.00,,,0.07,weatherlink.com 1.10,2013-02-10 15:05:00,
2013-02-10 09:20:00,55.9,28.0,29.89,NW,323,3.0,12.0,34,0.00,,,0.07,weatherlink.com 1.10,2013-02-10 15:20:00,
2013-02-10 09:35:00,56.3,29.0,29.89,West,271,3.0,11.0,35,0.00,,,0.07,weatherlink.com 1.10,2013-02-10 15:35:00,
2013-02-10 09:50:00,56.6,26.0,29.89,WNW,285,7.0,16.0,31,0.00,,,0.07,weatherlink.com 1.10,2013-02-10 15:50:00,
2013-02-10 10:05:00,57.4,28.0,29.90,WNW,287,7.0,13.0,33,0.00,,,0.07,weatherlink.com 1.10,2013-02-10 16:05:00,
2013-02-10 10:20:00,57.7,27.0,29.89,West,280,5.0,15.0,31,0.00,,,0.07,weatherlink.com 1.10,2013-02-10 16:20:00,
2013-02-10 10:35:00,58.6,29.0,29.91,NW,311,3.0,9.0,32,0.00,,,0.07,weatherlink.com 1.10,2013-02-10 16:35:00,
2013-02-10 10:50:00,58.9,25.0,29.91,WNW,290,3.0,13.0,27,0.00,,,0.07,weatherlink.com 1.10,2013-02-10 16:50:00,
2013-02-10 11:05:00,59.3,24.0,29.91,WNW,293,5.0,15.0,26,0.00,,,0.07,weatherlink.com 1.10,2013-02-10 17:05:00,
2013-02-10 11:20:00,57.9,22.0,29.91,NW,323,11.0,15.0,25,0.00,,,0.07,weatherlink.com 1.10,2013-02-10 17:20:00,
2013-02-10 11:35:00,57.7,23.0,29.91,NW,314,7.0,14.0,26,0.00,,,0.07,weatherlink.com 1.10,2013-02-10 17:35:00,
2013-02-10 11:50:00,57.6,24.0,29.91,West,271,7.0,13.0,27,0.00,,,0.07,weatherlink.com 1.10,2013-02-10 17:50:00,
2013-02-10 12:05:00,58.5,26.0,29.89,NW,325,5.0,10.0,29,0.00,,,0.07,weatherlink.com 1.10,2013-02-10 18:05:00,
2013-02-10 12:20:00,59.9,25.0,29.89,WNW,300,5.0,10.0,26,0.00,,,0.07,weatherlink.com 1.10,2013-02-10 18:20:00,
2013-02-10 12:35:00,60.0,24.0,29.88,WNW,297,6.0,11.0,25,0.00,,,0.07,weatherlink.com 1.10,2013-02-10 18:35:00,
2013-02-10 12:50:00,59.7,25.0,29.88,NNE,18,12.0,18.0,27,0.00,,,0.07,weatherlink.com 1.10,2013-02-10 18:50:00,
2013-02-10 13:05:00,60.6,24.0,29.87,NW,306,7.0,10.0,25,0.00,,,0.07,weatherlink.com 1.10,2013-02-10 19:05:00,
2013-02-10 13:20:00,60.8,26.0,29.86,North,356,4.0,10.0,27,0.00,,,0.07,weatherlink.com 1.10,2013-02-10 19:20:00,
2013-02-10 13:35:00,61.1,27.0,29.86,North,356,6.0,12.0,27,0.00,,,0.07,weatherlink.com 1.10,2013-02-10 19:35:00,
2013-02-10 13:50:00,61.3,28.0,29.86,NW,321,5.0,8.0,28,0.00,,,0.07,weatherlink.com 1.10,2013-02-10 19:50:00,
2013-02-10 14:05:00,62.5,27.0,29.85,North,357,12.0,12.0,26,0.00,,,0.07,weatherlink.com 1.10,2013-02-10 20:05:00,
2013-02-10 14:20:00,62.8,27.0,29.85,WNW,300,7.0,11.0,26,0.00,,,0.07,weatherlink.com 1.10,2013-02-10 20:20:00,
2013-02-10 14:36:00,63.0,27.0,29.84,West,278,1.0,10.0,25,0.00,,,0.07,weatherlink.com 1.10,2013-02-10 20:36:00,
2013-02-10 14:50:00,63.5,28.0,29.84,NW,304,6.0,8.0,26,0.00,,,0.07,weatherlink.com 1.10,2013-02-10 20:50:00,
2013-02-10 15:05:00,63.6,27.0,29.84,NNW,335,4.0,11.0,25,0.00,,,0.07,weatherlink.com 1.10,2013-02-10 21:05:00,
2013-02-10 15:20:00,63.5,27.0,29.83,NNW,341,4.0,11.0,25,0.00,,,0.07,weatherlink.com 1.10,2013-02-10 21:20:00,
2013-02-10 15:35:00,64.1,27.0,29.83,WNW,297,6.0,8.0,25,0.00,,,0.07,weatherlink.com 1.10,2013-02-10 21:35:00,
2013-02-10 15:50:00,64.1,26.0,29.83,NW,321,3.0,9.0,24,0.00,,,0.07,weatherlink.com 1.10,2013-02-10 21:50:00,
2013-02-10 16:05:00,64.9,26.0,29.83,West,259,2.0,9.0,23,0.00,,,0.07,weatherlink.com 1.10,2013-02-10 22:05:00,
2013-02-10 16:20:00,65.0,26.0,29.84,NW,316,3.0,8.0,23,0.00,,,0.07,weatherlink.com 1.10,2013-02-10 22:20:00,
2013-02-10 16:35:00,64.7,27.0,29.84,NW,315,5.0,9.0,24,0.00,,,0.07,weatherlink.com 1.10,2013-02-10 22:35:00,
2013-02-10 16:50:00,64.4,27.0,29.84,NW,315,3.0,9.0,24,0.00,,,0.07,weatherlink.com 1.10,2013-02-10 22:50:00,
2013-02-10 17:05:00,64.2,27.0,29.85,North,357,3.0,7.0,24,0.00,,,0.07,weatherlink.com 1.10,2013-02-10 23:05:00,
2013-02-10 17:20:00,63.9,27.0,29.85,North,11,2.0,3.0,25,0.00,,,0.07,weatherlink.com 1.10,2013-02-10 23:20:00,
2013-02-10 17:35:00,63.7,28.0,29.86,NW,309,2.0,4.0,26,0.00,,,0.07,weatherlink.com 1.10,2013-02-10 23:35:00,
2013-02-10 17:50:00,63.2,29.0,29.86,NNE,17,2.0,3.0,27,0.00,,,0.07,weatherlink.com 1.10,2013-02-10 23:50:00,
2013-02-10 18:05:00,62.0,30.0,29.86,NNE,13,0.0,2.0,30,0.00,,,0.07,weatherlink.com 1.10,2013-02-11 00:05:00,
2013-02-10 18:20:00,59.9,31.0,29.86,NNE,13,0.0,1.0,33,0.00,,,0.07,weatherlink.com 1.10,2013-02-11 00:20:00,
2013-02-10 18:35:00,58.0,34.0,29.87,NNE,13,0.0,1.0,41,0.00,,,0.07,weatherlink.com 1.10,2013-02-11 00:35:00,
2013-02-10 18:50:00,56.3,33.0,29.88,NNE,13,0.0,1.0,41,0.00,,,0.07,weatherlink.com 1.10,2013-02-11 00:50:00,
2013-02-10 19:05:00,55.9,35.0,29.88,NW,309,0.0,2.0,46,0.00,,,0.07,weatherlink.com 1.10,2013-02-11 01:05:00,
2013-02-10 19:20:00,55.5,35.0,29.88,WNW,300,0.0,2.0,46,0.00,,,0.07,weatherlink.com 1.10,2013-02-11 01:20:00,
2013-02-10 19:35:00,54.4,36.0,29.88,WNW,300,0.0,0.0,50,0.00,,,0.07,weatherlink.com 1.10,2013-02-11 01:35:00,
2013-02-10 19:50:00,52.9,39.0,29.89,WSW,256,0.0,1.0,60,0.00,,,0.07,weatherlink.com 1.10,2013-02-11 01:50:00,
2013-02-10 20:05:00,53.4,37.0,29.89,SW,221,0.0,1.0,55,0.00,,,0.07,weatherlink.com 1.10,2013-02-11 02:05:00,
2013-02-10 20:20:00,53.6,37.0,29.90,SW,221,0.0,1.0,54,0.00,,,0.07,weatherlink.com 1.10,2013-02-11 02:20:00,
2013-02-10 20:35:00,53.3,39.0,29.91,NNW,346,1.0,2.0,58,0.00,,,0.07,weatherlink.com 1.10,2013-02-11 02:35:00,
2013-02-10 20:50:00,54.2,33.0,29.90,WNW,298,0.0,3.0,45,0.00,,,0.07,weatherlink.com 1.10,2013-02-11 02:50:00,
2013-02-10 21:05:00,53.5,39.0,29.91,WNW,300,0.0,1.0,59,0.00,,,0.07,weatherlink.com 1.10,2013-02-11 03:05:00,
2013-02-10 21:20:00,53.1,38.0,29.92,WSW,243,1.0,1.0,56,0.00,,,0.07,weatherlink.com 1.10,2013-02-11 03:20:00,
2013-02-10 21:35:00,53.2,36.0,29.94,West,264,1.0,2.0,53,0.00,,,0.07,weatherlink.com 1.10,2013-02-11 03:35:00,
2013-02-10 21:50:00,52.9,37.0,29.96,NNW,338,0.0,1.0,56,0.00,,,0.07,weatherlink.com 1.10,2013-02-11 03:50:00,
2013-02-10 22:05:00,52.9,40.0,29.97,NW,313,2.0,2.0,63,0.00,,,0.07,weatherlink.com 1.10,2013-02-11 04:05:00,
2013-02-10 22:20:00,53.5,37.0,29.96,NNE,12,1.0,2.0,53,0.00,,,0.07,weatherlink.com 1.10,2013-02-11 04:20:00,
2013-02-10 22:36:00,53.4,39.0,29.96,NNE,12,1.0,1.0,59,0.00,,,0.07,weatherlink.com 1.10,2013-02-11 04:36:00,
2013-02-10 22:51:00,52.6,39.0,29.95,NNE,12,0.0,1.0,60,0.00,,,0.07,weatherlink.com 1.10,2013-02-11 04:51:00,
2013-02-10 23:06:00,51.6,40.0,29.97,NNE,12,1.0,1.0,64,0.00,,,0.07,weatherlink.com 1.10,2013-02-11 05:06:00,
2013-02-10 23:22:00,52.0,38.0,29.96,NW,316,0.0,5.0,60,0.00,,,0.07,weatherlink.com 1.10,2013-02-11 05:22:00,
2013-02-10 23:36:00,51.5,41.0,29.96,NW,312,1.0,3.0,67,0.00,,,0.07,weatherlink.com 1.10,2013-02-11 05:36:00,
2013-02-10 23:51:00,51.4,40.0,29.96,North,358,2.0,2.0,66,0.00,,,0.07,weatherlink.com 1.10,2013-02-11 05:51:00,